Regional Weather Roundup
Issued by NWS Northern Indiana

Home | Current Version | Previous Version | Text Only | Print | Product List | Glossary Off
Versions: 1 2 3 4 5 6 7 8 9 10 11 12 13 14 15 16 17 18 19 20 21 22 23 24 25 26 27 28 29 30 31 32 33 34 35 36 37 38 39 40 41 42 43 44 45 46 47 48 49 50

000
ASUS43 KIWX 241501
RWRIWX

KIWX WEATHER ROUNDUP
NATIONAL WEATHER SERVICE NORTHERN INDIANA
1100 AM EDT MON JUL 24 2017

NOTE: "FAIR" INDICATES FEW OR NO CLOUDS BELOW 12,000 FEET WITH NO
SIGNIFICANT WEATHER AND/OR OBSTRUCTIONS TO VISIBILITY.

* THESE STATIONS ARE NOT UNDER NWS QUALITY CONTROL. THEY ALSO MAY NOT
  REPORT WEATHER SUCH AS PRECIPITATION OR FOG.

INZ001>027-241600-
NORTHERN INDIANA

CITY           SKY/WX    TMP DP  RH WIND       PRES   REMARKS
GARY*          PTSUNNY   72  59  64 N14G26    30.02R
SOUTH BEND     CLOUDY    68  60  75 N13       29.99R
ELKHART*       CLOUDY    68  59  73 N12       29.99R
GOSHEN         PTSUNNY   70  58  65 NE9       29.99R
MONTICELLO*    CLOUDY    72  65  79 N9        29.98R
WARSAW*        CLOUDY    70  61  73 N7        29.99R
FORT WAYNE     CLOUDY    71  62  73 N10       29.97R
PERU/GRISSOM   CLOUDY    72  64  75 N12       29.97R

$$
INZ028>050-241600-
CENTRAL INDIANA

CITY           SKY/WX    TMP DP  RH WIND       PRES   REMARKS
LAFAYETTE      CLOUDY    73  66  78 N9        29.98R
KOKOMO*        PTSUNNY   73  64  73 N10       29.99R
MUNCIE*        PTSUNNY   76  66  71 N10       29.97R
INDIANAPOLIS   MOSUNNY   76  66  71 N9        29.96R

$$
MIZ043>046-050>051-056>058-064>065-071>073-077>080-241600-
SOUTHWEST LOWER MICHIGAN

CITY           SKY/WX    TMP DP  RH WIND       PRES   REMARKS
BATTLE CREEK   CLOUDY    67  57  70 N15       30.00R
BENTON HARBOR  CLOUDY    68  57  68 VRB6      30.00R
COLDWATER*     CLOUDY    67  58  74 N7        29.98S
HILLSDALE*     CLOUDY    66  55  68 N10G18    29.97S
HOLLAND        PTSUNNY   69  55  60 NE8G17    30.01S
GRAND RAPIDS   PTSUNNY   68  56  65 N13       30.00S
KALAMAZOO      CLOUDY    68  54  60 NE12      29.99S
STURGIS*       CLOUDY    65  59  81 N12       29.98R
THREE RIVERS*  CLOUDY    66  58  76 N5        29.99R

$$
OHZ001>008-015>018-024>025-241600-
NORTHWEST OHIO

CITY           SKY/WX    TMP DP  RH WIND       PRES   REMARKS
DEFIANCE       CLOUDY   N/A N/A N/A N12       29.97R
FINDLAY        CLOUDY    71  62  73 N9        29.94R
TOLEDO EXPRESS CLOUDY    66  60  81 N13       29.95R
TOLEDO METCALF CLOUDY    68  59  73 NW10      29.95R
LIMA           PTSUNNY   70  64  81 N12G18    29.95R

$$
AND FOR LAKE MICHIGAN COASTAL AND OPEN LAKE BUOY OBSERVATIONS

STATION/POSITION TEMP    WIND        PRES    VSBY  WAVE
                 AIR SEA DIR/SP/G                  HT/PER
                 (F)     (DEG/KT/KT) (MB)    (MI)  (FT/S)
CALUMET HARBOR    70     360/ 12/ 16 1015.7R
MICHIGAN CITY     68      10/ 17/ 19   N/A
BURNS HARBOR      69      30/ 14/ 19 1015.9R
SAINT JOSEPH      67      40/  5/ 13 1015.6
SOUTH LAKE BUOY   66 70   20/ 17/ 21 1015.9          4/ 7
4 MI NW BRIDGMAN  68 73   50/ 14/ 19 1015.8R         5/ 7
MICHIGAN CITY     69 74   40/ 16/ 19   N/A           6/ 6

$$
&&



USA.gov is the U.S. government's official web portal to all federal, state and local government web resources and services.